Location: *
(50.9167°S, 179.4000°W)
Time: 17:52:07
(UTC+00:00)

CZ-2C R/B - Pass Details

Date: 27 June 2024
Orbit: 665 x 779 km, 98.4° (Epoch: 18 July)

Event Time Altitude Azimuth Distance (km) Brightness Sun altitude
Rises 04:42:09 0° 171° (S) 3,306 5.4 -6.4°
Reaches altitude 10° 04:44:39 10° 179° (S) 2,365 4.8 -6.8°
Maximum altitude 04:49:22 36° 243° (WSW) 1,228 4.0 -7.4°
Drops below altitude 10° 04:53:59 10° 308° (NW) 2,297 6.6 -8.1°
Sets 04:56:23 0° 316° (NW) 3,198 7.3 -8.4°
